Terminal Aerodrome Forecast
Issued by NWS Upton, NY

Home | Current Version | Previous Version | Text Only | Print | Product List | Glossary On
Versions: 1 2 3 4 5 6 7 8 9 10 11 12 13 14 15 16 17 18 19 20 21 22 23 24 25 26 27 28 29
000
FTUS41 KOKX 250800 AAA
TAFJFK
TAF AMD
KJFK 250831Z 2509/2612 20018G28KT 1SM RA BR BKN003 WS020/22060KT
     FM251100 26016G26KT P6SM SCT020 BKN080
     FM251400 28020G34KT P6SM SCT080 BKN250
     FM252200 28016G28KT P6SM SKC
     FM260200 28012KT P6SM SKC=

USA.gov is the U.S. government's official web portal to all federal, state and local government web resources and services.